Погода в Полиньяно-а-Маре

Италия     40°59′37″N   17°13′19″E
темп.,
°C
ветер,
м/с
пор.,
м/с
влажн.,
%
обл.,
%
осадки,
мм/ч
давл.,
гПа
погр.,
м
24 января, пн
пн2401:00+8ссв101153100 0.1 10251678
04:00+7ссв10114897 0.0 10261538
07:00+6ссв10104783 0.0 10271494
10:00+6ссв1112442 0.0 10281639
13:00+5ссв1011469 0.0 10281927
16:00+5св101049100 0.1 10292274
19:00+4св8845100 0.1 10311618
22:00+4ссв454682 0.1 10321244
25 января, вт
вт2501:00+4св454416 0.1 10321321
04:00+4ссв56515 0.0 10321171
07:00+4с45514 0.0 1032907
10:00+6ссз664919 0.0 10321534
13:00+6сз885829 0.0 10311427
16:00+7сз810555 0.0 10291474
19:00+8сз911617 0.0 10291122
22:00+7зсз9127198 0.0 1028908
26 января, ср
ср2601:00+8сз9127099 0.1 10281096
04:00+9сз9137285 0.3 10271160
07:00+9ссз8116531 0.4 10271045
10:00+10ссз8106532 0.0 10281166
13:00+10ссз8106739 0.0 10271229
16:00+10ссз9117068 0.0 10261224
19:00+11ссз9116756 0.1 10271093
22:00+11ссз9106850 0.0 10271078
27 января, чт
чт2701:00+9сз7107692 0.1 1027748
04:00+9зсз7107780 0.1 1026689
07:00+9зсз797884 0.1 1027600
10:00+10сз797621 0.1 1028728
13:00+11сз787379 0.1 1027870
16:00+11ссз67715 0.1 10261047
19:00+10сз457495 0.1 1026631
22:00+10сз237575 0.0 1026428
28 января, пт
пт2801:00+9ююз227889 0.0 1025155
04:00+8ююз347391 0.0 1024153
07:00+8ю337790 0.0 1023158
10:00+10ю1267100 0.0 1022294
13:00+11св1162100 0.0 1021484
16:00+11с4471100 0.0 1022473
19:00+11св2368100 0.0 1022408
22:00+10вюв2378100 0.4 1022246